Location: Unspecified
(43.1763°N, 179.4719°W)
Time: 20:38:55
(UTC-04:00)

Cosmos 2058 - Visible Passes

Search period start: 25 October 2021 00:00
Search period end: 04 November 2021 00:00
Orbit: 562 x 582 km, 82.5° (Epoch: 25 October)

Date Brightness Start Highest point End Pass type
(mag) Time Alt. Az. Time Alt. Az. Time Alt. Az.
25 Oct 5.8 03:48:15 10° NNW 03:48:17 10° NNW 03:48:17 10° NNW visible
26 Oct 5.7 03:50:54 10° NNW 03:51:14 12° NNW 03:51:14 12° NNW visible
27 Oct 5.1 02:17:37 10° NNE 02:18:03 12° NNE 02:18:03 12° NNE visible
27 Oct 5.7 03:53:37 10° NNW 03:54:15 14° NNW 03:54:15 14° NNW visible
28 Oct 4.7 02:19:50 10° NNE 02:21:10 16° NE 02:21:10 16° NE visible
28 Oct 5.6 03:56:23 10° NNW 03:57:23 16° NW 03:57:23 16° NW visible
29 Oct 4.2 02:22:11 10° NNE 02:24:26 23° NE 02:24:26 23° NE visible
29 Oct 5.6 03:59:13 10° NW 04:00:39 17° NW 04:00:39 17° NW visible
30 Oct 3.6 02:24:34 10° N 02:27:56 34° ENE 02:27:56 34° ENE visible
30 Oct 5.6 04:02:10 10° NW 04:04:10 17° WNW 04:04:10 17° WNW visible
31 Oct 3.1 02:27:02 10° N 02:31:07 47° ENE 02:31:50 42° ESE visible
31 Oct 5.9 04:05:17 10° NW 04:07:34 14° W 04:08:07 14° W visible
01 Nov 2.8 02:29:32 10° N 02:33:44 62° E 02:36:51 17° SSE visible
01 Nov 6.2 04:08:52 10° WNW 04:10:01 11° W 04:11:11 10° W visible
02 Nov 2.8 02:32:06 10° N 02:36:19 82° E 02:40:31 10° S visible
03 Nov 3.0 02:34:41 10° NNW 02:38:54 76° W 02:43:05 10° S visible
